カタログに戻る

STARLINK-6082

運用中通信VLEO
NORAD 56110·PAYLOAD·🇺🇸 United States

打ち上げ Mar 29, 2023 から Cape Canaveral Space Force Station

Loading…

次のパス (今後24時間)

TLE

最新Source: CelesTrak SupGP

元期: Sep 14, 2026, 21:23 UTC

1 56110C 23046T   26257.89145833 -.00028977  00000+0 -10496-2 0  2574
2 56110  43.0025 173.2229 0000997 264.6230 154.9659 15.27590539    19

AllMySatでSTARLINK-6082をリアルタイム追跡

Download on the App Store